TimeCDT,TemperatureF,Dew PointF,Humidity,Sea Level PressureIn,VisibilityMPH,Wind Direction,Wind SpeedMPH,Gust SpeedMPH,PrecipitationIn,Events,Conditions,WindDirDegrees,DateUTC
12:52 AM,71.1,66.0,84,29.82,9.0,NNE,12.7,-,N/A,,Partly Cloudy,30,2013-06-12 05:52:00
1:52 AM,70.0,64.9,84,29.77,8.0,ENE,18.4,-,N/A,,Clear,60,2013-06-12 06:52:00
2:52 AM,69.1,64.9,87,29.79,8.0,ESE,10.4,-,0.01,Rain-Thunderstorm,Light Thunderstorms and Rain,110,2013-06-12 07:52:00
3:52 AM,68.0,66.0,93,29.79,4.0,ENE,8.1,-,0.20,Rain-Thunderstorm,Light Rain,70,2013-06-12 08:52:00
4:00 AM,69.8,66.2,88,29.80,6.0,ENE,11.5,-,0.01,Rain,Light Rain,70,2013-06-12 09:00:00
4:34 AM,69.8,66.2,88,29.72,8.0,SE,13.8,-,0.02,,Partly Cloudy,140,2013-06-12 09:34:00
4:52 AM,70.0,66.9,90,29.71,8.0,SSE,18.4,-,0.03,,Partly Cloudy,150,2013-06-12 09:52:00
5:52 AM,70.0,66.9,90,29.70,8.0,ESE,11.5,-,N/A,,Clear,110,2013-06-12 10:52:00
5:59 AM,69.8,66.2,88,29.74,7.0,ESE,10.4,-,N/A,,Scattered Clouds,110,2013-06-12 10:59:00
6:37 AM,69.8,66.2,88,29.78,6.0,NE,4.6,-,N/A,,Mostly Cloudy,40,2013-06-12 11:37:00
6:52 AM,70.0,68.0,93,29.76,5.0,North,4.6,-,N/A,,Overcast,10,2013-06-12 11:52:00
7:34 AM,71.6,68.0,88,29.77,6.0,Calm,Calm,-,N/A,,Scattered Clouds,0,2013-06-12 12:34:00
7:50 AM,71.6,68.0,88,29.78,7.0,North,3.5,-,N/A,,Mostly Cloudy,360,2013-06-12 12:50:00
7:52 AM,72.0,68.0,87,29.75,7.0,NNE,3.5,-,N/A,,Mostly Cloudy,20,2013-06-12 12:52:00
8:52 AM,73.0,69.1,87,29.75,9.0,ENE,3.5,-,N/A,,Mostly Cloudy,70,2013-06-12 13:52:00
8:57 AM,73.4,69.8,88,29.77,10.0,ESE,4.6,-,N/A,,Mostly Cloudy,110,2013-06-12 13:57:00
9:10 AM,73.4,69.8,88,29.76,10.0,East,4.6,-,N/A,,Partly Cloudy,80,2013-06-12 14:10:00
9:33 AM,73.4,68.0,83,29.77,10.0,Calm,Calm,-,N/A,,Mostly Cloudy,0,2013-06-12 14:33:00
9:50 AM,66.2,62.6,88,29.78,6.0,North,23.0,29.9,N/A,,Haze,360,2013-06-12 14:50:00
9:51 AM,66.0,62.1,87,29.76,5.0,North,26.5,31.1,N/A,,Overcast,360,2013-06-12 14:51:00
10:52 AM,64.9,62.1,90,29.77,6.0,NNE,12.7,-,N/A,,Overcast,20,2013-06-12 15:52:00
11:39 AM,66.2,62.6,88,29.79,4.0,North,12.7,-,N/A,,Overcast,10,2013-06-12 16:39:00
11:52 AM,66.0,63.0,90,29.76,4.0,NNE,12.7,-,N/A,,Overcast,20,2013-06-12 16:52:00
12:52 PM,72.0,66.9,84,29.75,6.0,NE,13.8,-,N/A,,Haze,50,2013-06-12 17:52:00
1:13 PM,73.4,68.0,83,29.78,6.0,NE,10.4,-,N/A,,Haze,40,2013-06-12 18:13:00
1:24 PM,73.4,68.0,83,29.78,6.0,NE,6.9,-,N/A,,Haze,40,2013-06-12 18:24:00
1:52 PM,71.1,66.9,87,29.77,6.0,North,5.8,-,N/A,,Overcast,350,2013-06-12 18:52:00
2:52 PM,71.1,66.9,87,29.77,5.0,NNW,6.9,-,N/A,,Overcast,340,2013-06-12 19:52:00
3:41 PM,69.8,66.2,88,29.79,1.8,WNW,11.5,-,0.01,Rain,Rain,300,2013-06-12 20:41:00
3:52 PM,69.1,66.0,90,29.78,1.5,WNW,15.0,-,0.05,Rain,Rain,300,2013-06-12 20:52:00
4:05 PM,66.2,64.4,94,29.81,2.0,NNW,23.0,32.2,0.02,Rain,Light Rain,330,2013-06-12 21:05:00
4:11 PM,66.2,62.6,88,29.81,3.0,NNW,25.3,31.1,0.02,Rain,Light Rain,330,2013-06-12 21:11:00
4:28 PM,64.4,60.8,88,29.80,8.0,NNW,26.5,34.5,0.02,,Overcast,330,2013-06-12 21:28:00
4:35 PM,64.4,60.8,88,29.81,10.0,NNW,28.8,36.8,0.02,,Overcast,340,2013-06-12 21:35:00
4:48 PM,64.4,59.0,83,29.81,10.0,NNW,29.9,36.8,0.02,,Overcast,340,2013-06-12 21:48:00
4:52 PM,64.0,60.1,87,29.80,10.0,NNW,24.2,35.7,0.02,,Overcast,330,2013-06-12 21:52:00
5:02 PM,64.4,59.0,83,29.82,10.0,NNW,28.8,38.0,N/A,,Overcast,330,2013-06-12 22:02:00
5:38 PM,60.8,57.2,88,29.84,7.0,NNW,26.5,36.8,N/A,,Overcast,330,2013-06-12 22:38:00
5:52 PM,61.0,57.0,87,29.84,5.0,NNW,26.5,34.5,0.00,Rain,Light Rain,330,2013-06-12 22:52:00
6:07 PM,60.8,57.2,88,29.86,3.0,NNW,29.9,36.8,0.01,,Overcast,330,2013-06-12 23:07:00
6:24 PM,60.8,57.2,88,29.86,5.0,NNW,27.6,39.1,0.02,Rain,Light Rain,330,2013-06-12 23:24:00
6:41 PM,60.8,57.2,88,29.86,4.0,NNW,26.5,35.7,0.04,Rain,Heavy Rain,340,2013-06-12 23:41:00
6:52 PM,60.1,57.0,90,29.85,6.0,NNW,26.5,34.5,0.05,Rain,Light Rain,340,2013-06-12 23:52:00
7:52 PM,62.1,55.9,80,29.87,10.0,North,16.1,26.5,0.01,,Overcast,350,2013-06-13 00:52:00
8:52 PM,62.1,55.0,78,29.90,10.0,NW,19.6,27.6,N/A,,Overcast,320,2013-06-13 01:52:00
9:52 PM,62.1,54.0,75,29.94,10.0,NW,17.3,-,N/A,,Mostly Cloudy,310,2013-06-13 02:52:00
10:52 PM,63.0,55.9,78,29.96,10.0,NNW,18.4,-,N/A,,Mostly Cloudy,330,2013-06-13 03:52:00
11:52 PM,62.1,55.0,78,29.98,10.0,NW,17.3,-,N/A,,Partly Cloudy,320,2013-06-13 04:52:00